Nanaimo Airport, British Columbia

Past 24 Hour Conditions

Date / Time
(PST)
Conditions Temp
(°C)
Humidity
(%)
Dew Point
(°C)
Wind
(km/h)
Pressure
(kPa)
Visibility
(km)
26 January 2015
21:00 Fog 5 99 5 SSW 6 101.3 0.4
20:00 Fog 6 99 6 N 3 101.3 0.4
19:00 Fog 7 99 6 W 5 101.3 0.2
18:00 Fog 7 99 7 ENE 4 101.3 0.2
17:00 Fog 7 99 7 N 2 101.3 0.2
16:00 Mist 8   99 8 N 2 101.3 2
15:00 Mist 8   100 8 SSW 3 101.2 2
14:00 Mist 8   100 8 S 9 101.2 2
13:00 Mist 8   100 8 SE 8 101.3 1
12:00 Fog 7 100 7 N 2 101.4 0.6
11:00 Mist 6 100 6 N 2 101.4 1
10:00 Mist 5 100 5 S 8 101.4 2
9:00 Mist 4 99 3 S 3 101.4 1
8:00 Mist 2   99 2 SW 7 101.3 1
7:00 Mist 2   99 2 N 2 101.4 1
6:00 Fog 3 100 3 SSW 4 101.3 0.4
5:00 N/A 3 99 3 NW 2 101.4 N/A
4:00 N/A 4 99 3 WNW 5 101.4 N/A
3:00 N/A 5 99 5 NNE 2 101.5 N/A
2:00 N/A 5 99 5 S 4 101.5 N/A
1:00 N/A 5 99 5 SW 3 101.5 N/A
00:00 N/A 4 99 4 N 3 101.6 N/A
25 January 2015
23:00 N/A 5 99 5 SSE 2 101.7 N/A
22:00 N/A 5 99 5 SSE 2 101.7 N/A
21:00 Mist 6 99 6 calm 101.7 2
N/A Not available
↑ Highest temperature
↓ Lowest temperature

If you require additional historical weather information, please visit Climate Data Online.

What we are doing

Date modified: